THA409 VTBS-WSSS

Flight info

Callsign THA409
Flight time N/A
Altitude 41000
Route BUT1E BUT Y11 PASVA Y514 NUFFA DCT PIBAP DCT PASPU DCT NYLON
Aircraft A359/H-SDE2E3GHIJ1J3J4J5LM1ORWXY/LB1D1

Departure

Time 2026-05-06 11:40
Airport Suvarnabhumi Airport (VTBS)

Arrival

Time N/A
Airport Singapore Changi Airport (WSSS)
Time Latitude Longitude Altitude Speed Heading
2026-05-06 11:16 13.68927 100.74523 20 ft 0 kts 104°
2026-05-06 11:29 13.68930 100.74510 20 ft 2 kts 101°
2026-05-06 11:29 13.68933 100.74493 20 ft 2 kts 96°
2026-05-06 11:29 13.68933 100.74476 23 ft 2 kts 88°
2026-05-06 11:29 13.68931 100.74459 22 ft 2 kts 75°
2026-05-06 11:30 13.68925 100.74443 23 ft 2 kts 55°
2026-05-06 11:30 13.68913 100.74431 23 ft 2 kts 33°
2026-05-06 11:30 13.68899 100.74424 23 ft 2 kts 19°
2026-05-06 11:30 13.68894 100.74422 23 ft 0 kts 17°
2026-05-06 11:34 13.68895 100.74422 23 ft 0 kts 17°
2026-05-06 11:34 13.68900 100.74424 20 ft 2 kts 17°
2026-05-06 11:35 13.68930 100.74434 22 ft 7 kts 17°
2026-05-06 11:35 13.68991 100.74452 19 ft 12 kts 16°
2026-05-06 11:35 13.69089 100.74469 19 ft 16 kts 354°
2026-05-06 11:35 13.69154 100.74387 19 ft 18 kts 284°
2026-05-06 11:36 13.69197 100.74242 19 ft 21 kts 305°
2026-05-06 11:36 13.69336 100.74237 16 ft 24 kts 16°
2026-05-06 11:36 13.69510 100.74285 16 ft 28 kts 15°
2026-05-06 11:36 13.69709 100.74341 16 ft 32 kts 15°
2026-05-06 11:37 13.69865 100.74382 17 ft 0 kts 12°
2026-05-06 11:37 13.69871 100.74382 17 ft 2 kts
2026-05-06 11:38 13.69896 100.74365 18 ft 7 kts 312°
2026-05-06 11:38 13.69915 100.74296 19 ft 14 kts 284°
2026-05-06 11:38 13.69947 100.74170 19 ft 22 kts 284°
2026-05-06 11:38 13.69989 100.73998 20 ft 28 kts 284°
2026-05-06 11:39 13.69991 100.73853 23 ft 15 kts 231°
2026-05-06 11:39 13.69872 100.73812 18 ft 22 kts 193°
2026-05-06 11:39 13.69682 100.73757 19 ft 45 kts 195°
2026-05-06 11:39 13.69171 100.73619 20 ft 109 kts 194°
2026-05-06 11:40 13.68226 100.73372 41 ft 167 kts 194°
2026-05-06 11:40 13.67033 100.73035 463 ft 189 kts 195°
2026-05-06 11:40 13.65650 100.72647 800 ft 226 kts 193°
2026-05-06 11:40 13.63960 100.72254 1013 ft 270 kts 191°
2026-05-06 11:41 13.62037 100.71824 1524 ft 288 kts 192°
2026-05-06 11:41 13.60099 100.71383 2572 ft 280 kts 192°
2026-05-06 11:41 13.58237 100.70946 3609 ft 276 kts 192°
2026-05-06 11:41 13.56377 100.70501 4544 ft 274 kts 192°
2026-05-06 11:42 13.54510 100.70059 5374 ft 276 kts 191°
2026-05-06 11:42 13.52624 100.69649 6179 ft 277 kts 188°
2026-05-06 11:42 13.50705 100.69432 6946 ft 279 kts 183°
2026-05-06 11:42 13.48762 100.69290 7671 ft 281 kts 183°
2026-05-06 11:43 13.46799 100.69160 8400 ft 285 kts 183°
2026-05-06 11:43 13.44809 100.69028 9130 ft 288 kts 183°
2026-05-06 11:43 13.42795 100.68891 9710 ft 291 kts 183°
2026-05-06 11:44 13.38724 100.68611 10003 ft 295 kts 183°
2026-05-06 11:44 13.36668 100.68469 10006 ft 296 kts 183°
2026-05-06 11:44 13.34612 100.68328 10006 ft 296 kts 183°
2026-05-06 11:44 13.32558 100.68186 10008 ft 296 kts 183°
2026-05-06 11:45 13.30498 100.68051 10002 ft 296 kts 182°
2026-05-06 11:45 13.28454 100.68239 10005 ft 296 kts 163°
2026-05-06 11:45 13.26606 100.69148 10089 ft 298 kts 148°
2026-05-06 11:45 13.24815 100.70336 10304 ft 314 kts 146°
2026-05-06 11:46 13.22969 100.71591 10722 ft 324 kts 146°
2026-05-06 11:46 13.21070 100.72873 11278 ft 329 kts 146°
2026-05-06 11:46 13.19141 100.74168 11849 ft 333 kts 147°
2026-05-06 11:46 13.17158 100.75495 12429 ft 337 kts 146°
2026-05-06 11:47 13.15209 100.76797 13016 ft 340 kts 146°
2026-05-06 11:47 13.13212 100.78128 13593 ft 344 kts 146°
2026-05-06 11:47 13.11200 100.79467 14089 ft 347 kts 146°
2026-05-06 11:47 13.09147 100.80824 14581 ft 351 kts 147°
2026-05-06 11:48 13.06986 100.82030 15069 ft 356 kts 153°
2026-05-06 11:48 13.04723 100.83090 15578 ft 359 kts 155°
2026-05-06 11:48 13.02427 100.84123 16073 ft 362 kts 155°
2026-05-06 11:48 13.00101 100.85162 16610 ft 366 kts 155°
2026-05-06 11:49 12.97761 100.86208 17085 ft 369 kts 155°
2026-05-06 11:49 12.95399 100.87262 17586 ft 372 kts 155°
2026-05-06 11:49 12.93014 100.88327 18074 ft 375 kts 155°
2026-05-06 11:49 12.90613 100.89399 18492 ft 378 kts 155°
2026-05-06 11:50 12.88188 100.90481 18918 ft 381 kts 155°
2026-05-06 11:50 12.85752 100.91568 19339 ft 383 kts 155°
2026-05-06 11:50 12.83303 100.92661 19753 ft 386 kts 155°
2026-05-06 11:50 12.80830 100.93765 20180 ft 388 kts 155°
2026-05-06 11:51 12.78346 100.94873 20594 ft 390 kts 155°
2026-05-06 11:51 12.75849 100.95986 21026 ft 393 kts 155°
2026-05-06 11:51 12.73340 100.97104 21439 ft 395 kts 155°
2026-05-06 11:51 12.70812 100.98231 21848 ft 397 kts 155°
2026-05-06 11:52 12.68267 100.99364 22265 ft 400 kts 155°
2026-05-06 11:52 12.65658 101.00369 22649 ft 403 kts 160°
2026-05-06 11:52 12.62977 101.01233 23061 ft 405 kts 162°
2026-05-06 11:52 12.60289 101.02019 23441 ft 408 kts 163°
2026-05-06 11:53 12.57541 101.02786 23776 ft 411 kts 163°
2026-05-06 11:53 12.54773 101.03547 24110 ft 413 kts 164°
2026-05-06 11:53 12.51990 101.04312 24447 ft 416 kts 163°
2026-05-06 11:53 12.49194 101.05090 24791 ft 418 kts 163°
2026-05-06 11:54 12.46378 101.05883 25136 ft 420 kts 163°
2026-05-06 11:54 12.43554 101.06683 25499 ft 422 kts 163°
2026-05-06 11:54 12.40715 101.07491 25861 ft 425 kts 163°
2026-05-06 11:54 12.37849 101.08252 26218 ft 428 kts 167°
2026-05-06 11:55 12.34890 101.08660 26580 ft 430 kts 175°
2026-05-06 11:55 12.31892 101.08804 26965 ft 433 kts 178°
2026-05-06 11:55 12.28870 101.08835 27326 ft 435 kts 179°
2026-05-06 11:55 12.25836 101.08806 27714 ft 437 kts 180°
2026-05-06 11:56 12.22780 101.08754 28091 ft 440 kts 180°
2026-05-06 11:56 12.19713 101.08701 28480 ft 443 kts 180°
2026-05-06 11:56 12.16623 101.08655 28864 ft 445 kts 180°
2026-05-06 11:56 12.13515 101.08618 29268 ft 448 kts 180°
2026-05-06 11:57 12.10392 101.08587 29655 ft 450 kts 180°
2026-05-06 11:57 12.08316 101.08570 29906 ft 452 kts 180°
2026-05-06 11:57 12.05155 101.08545 30263 ft 455 kts 180°
2026-05-06 11:57 12.01986 101.08522 30636 ft 457 kts 180°
2026-05-06 11:58 11.98798 101.08498 31030 ft 459 kts 180°
2026-05-06 11:58 11.95600 101.08474 31425 ft 461 kts 180°
2026-05-06 11:58 11.92385 101.08450 31823 ft 463 kts 180°
2026-05-06 11:58 11.89163 101.08426 32217 ft 465 kts 180°
2026-05-06 11:59 11.85919 101.08401 32614 ft 466 kts 180°
2026-05-06 11:59 11.82682 101.08376 33155 ft 464 kts 180°
2026-05-06 11:59 11.79460 101.08351 33795 ft 461 kts 180°
2026-05-06 11:59 11.76269 101.08326 34377 ft 457 kts 180°
2026-05-06 12:00 11.73098 101.08303 34948 ft 454 kts 180°
2026-05-06 12:00 11.69945 101.08280 35505 ft 452 kts 180°
2026-05-06 12:00 11.66810 101.08258 36029 ft 450 kts 180°
2026-05-06 12:00 11.63683 101.08423 36523 ft 450 kts 173°
2026-05-06 12:01 11.60584 101.08851 37057 ft 448 kts 172°
2026-05-06 12:01 11.57507 101.09345 37588 ft 447 kts 171°
2026-05-06 12:01 11.54443 101.09885 38120 ft 446 kts 171°
2026-05-06 12:01 11.51391 101.10448 38615 ft 445 kts 170°
2026-05-06 12:02 11.48347 101.11022 39032 ft 445 kts 170°
2026-05-06 12:02 11.45305 101.11598 39441 ft 444 kts 170°
2026-05-06 12:02 11.42269 101.12171 39833 ft 444 kts 170°
2026-05-06 12:02 11.39230 101.12741 40235 ft 443 kts 170°
2026-05-06 12:03 11.36199 101.13307 40629 ft 443 kts 170°
2026-05-06 12:03 11.33199 101.13865 40817 ft 446 kts 170°
2026-05-06 12:03 11.27044 101.15006 40828 ft 452 kts 170°
2026-05-06 12:04 11.20860 101.16153 40830 ft 452 kts 170°
2026-05-06 12:04 11.14669 101.17300 40828 ft 452 kts 170°
2026-05-06 12:05 11.08480 101.18447 40829 ft 451 kts 170°
2026-05-06 12:05 11.02303 101.19591 40823 ft 451 kts 170°
2026-05-06 12:06 10.96135 101.20732 40824 ft 451 kts 170°
2026-05-06 12:06 10.89969 101.21873 40824 ft 450 kts 170°
2026-05-06 12:07 10.83806 101.23013 40827 ft 450 kts 170°
2026-05-06 12:07 10.77647 101.24152 40830 ft 450 kts 170°
2026-05-06 12:08 10.71492 101.25289 40832 ft 449 kts 169°
2026-05-06 12:08 10.65343 101.26425 40831 ft 449 kts 169°
2026-05-06 12:09 10.59199 101.27560 40827 ft 449 kts 169°
2026-05-06 12:09 10.53056 101.28694 40829 ft 449 kts 169°
2026-05-06 12:10 10.46912 101.29828 40831 ft 448 kts 169°
2026-05-06 12:10 10.40818 101.30951 40827 ft 448 kts 169°
2026-05-06 12:11 10.34687 101.32084 40828 ft 448 kts 169°
2026-05-06 12:11 10.28552 101.33220 40831 ft 448 kts 169°
2026-05-06 12:12 10.22427 101.34355 40830 ft 448 kts 169°
2026-05-06 12:12 10.16294 101.35490 40828 ft 448 kts 170°
2026-05-06 12:13 10.10168 101.36624 40827 ft 447 kts 170°
2026-05-06 12:13 10.04046 101.37757 40829 ft 447 kts 170°
2026-05-06 12:14 9.97919 101.38890 40832 ft 447 kts 170°
2026-05-06 12:14 9.91799 101.40022 40831 ft 447 kts 170°
2026-05-06 12:15 9.85683 101.41152 40829 ft 447 kts 170°
2026-05-06 12:15 9.79563 101.42282 40834 ft 447 kts 170°
2026-05-06 12:16 9.73449 101.43411 40832 ft 446 kts 169°
2026-05-06 12:16 9.67344 101.44538 40830 ft 446 kts 169°
2026-05-06 12:17 9.61234 101.45666 40834 ft 446 kts 169°
2026-05-06 12:17 9.55129 101.46792 40831 ft 446 kts 169°
2026-05-06 12:18 9.49028 101.47917 40832 ft 446 kts 169°
2026-05-06 12:18 9.42930 101.49041 40826 ft 445 kts 169°
2026-05-06 12:19 9.36883 101.50155 40830 ft 446 kts 169°
2026-05-06 12:19 9.30730 101.51289 40833 ft 446 kts 169°